Simultaneous Nadir Overpasses (SNOs) Predictions

Prediction of SNOs between GOES-16 and METOP-B Satellite Orbit:

Table of predicted SNOs for the next 14.0 days since TLE Epoch: 11/2/2018
Index Date Time (GOES-16) GOES-16 Lat,Lon METOP-B Lat,Lon Distance(km) Time Diff (sec)
1 11/03/2018 14:42:30 0.00, -75.20 0.86, -78.92 424.63 80
2 11/04/2018 14:24:33 0.00, -75.20 -0.30, -73.94 144.33 80
3 11/06/2018 02:43:34 -0.00, -75.19 -0.75, -78.53 380.14 80
4 11/07/2018 02:20:16 -0.00, -75.20 0.34, -73.53 189.20 80
5 11/08/2018 14:39:10 0.00, -75.21 0.65, -78.10 328.83 80
6 11/09/2018 14:21:11 0.00, -75.22 -0.45, -73.10 240.78 80
7 11/11/2018 02:40:14 0.00, -75.22 -0.54, -77.70 282.84 80
8 11/12/2018 02:16:55 0.00, -75.23 0.55, -72.71 287.00 80
9 11/13/2018 14:35:50 -0.01, -75.26 0.44, -77.28 230.21 80
10 11/14/2018 14:15:11 -0.01, -75.27 -0.66, -72.28 340.02 80
11 11/16/2018 02:36:53 0.01, -75.28 -0.34, -76.88 182.42 80




NCC Satellite Simultaneous Nadir Overpasses (SNOs) Prediction Service
